User: anonymous   Login
Location: Lawrence Hall of Science
(37.8785°N, 122.2415°W)
Time: 07:17:15
(UTC-08:00)
Language:

ARGOS - Orbit

View from above orbital plane
View from above orbital plane
View from above satellite
View from above satellite

Ground track
Ground track

The orbit data is extracted from the following two-line orbital elements,

1 25634U 99008A   17023.81957869 -.00000038  00000-0  25627-5 0  9991
2 25634  98.6403  90.3625 0009124 263.5172  96.4965 14.19303110927986
Epoch (UTC): 23 January 2017 19:40:11
Eccentricity: 0.0009124
inclination: 98.6403°
perigee height: 821 km
apogee height: 834 km
right ascension of ascending node: 90.3625°
argument of perigee: 263.5172°
revolutions per day: 14.19303110
mean anomaly at epoch: 96.4965°
orbit number at epoch: 92798

The dashed part of the orbit path shows where the satellite is in the earth's shadow,  

DLR